Погода в Луке

Украина / Киевская область     49°28′51″N   30°40′52″E
темп.,
°C
ветер,
м/с
пор.,
м/с
влажн.,
%
обл.,
%
осадки,
мм/ч
давл.,
гПа
погр.,
м
28 января, чт
чт2823:00−2с81396100 4.4 1003706
02:00−2с91596100 7.3 1001765
05:00−2с81496100 3.2 999746
08:00−2с81496100 4.9 999665
11:00−2с71297100 1.9 999603
14:00−1ссз71297100 3.9 997633
17:00−1ссз61297100 1.9 998609
20:00−1ссз61197100 3.6 997635
29 января, пт
пт2923:00−2сз61197100 1.2 997569
02:00−3зсз71296100 3.0 998593
05:00−3з61092100 1.1 999503
08:00−7юз5119194 1.1 1000236
11:00−2юз81588100 0.0 1000655
14:000юз81397100 1.2 999835
17:00−1зюз5138793 0.6 999429
20:00−5зюз498969 0.6 1000159
30 января, сб
сб3023:00−7зюз478945 0.0 1002130
02:00−8зюз479068 0.0 100294
05:00−7ююз3388100 0.0 100142
08:00−5ююв3888100 0.0 1000170
11:00−1ю81496100 0.4 999522
14:000ююз71399100 1.5 995567
17:00+1ю71299100 1.3 994375
20:00+1ююз4999100 2.0 992267
31 января, вс
вс3123:00+1ю5898100 0.0 990232
02:00+1зюз7139498 0.2 990677
05:00−3зсз111789100 0.6 993912
08:00−5зсз91787100 0.6 999825
11:00−4зсз81486100 0.0 1004824
14:00−4з6118591 0.0 1006745
17:00−6зюз49897 0.0 1009168
20:00−8зюз238937 0.0 101021
1 февраля, пн
пн123:00−9ю23880 0.0 101123
02:00−8юв238931 0.0 101035
05:00−6вюв51188100 0.0 1007284
08:00−4вюв81493100 0.3 1005608
11:00−3вюв91596100 2.8 1000587
14:00+1в91599100 7.9 995464
17:00+2ю716100100 0.9 993482
20:00+1ююз81597100 0.9 995455